Overview Statistics Trail Chart Weather Telemetry Raw packets
 

This is the latest recevied weather packets stored in our database for station/object K6GMW. If no packets are shown the sender has not sent any weather packets the latest 10 day(s).

<< 12 13 14 15 16 17 18 >>
Time Temp. Humidity Pressure Rain* Wind** Luminosity Snow
1788544478 35° C 48% 1015.8 hPa 0 mm - 1010 W/m² -
1788544178 35° C 48% 1016.1 hPa 0 mm - 1025 W/m² -
1788543873 34.44° C 49% 1015.9 hPa 0 mm - 452 W/m² -
1788543570 35.56° C 47% 1016.4 hPa 0 mm - 1072 W/m² -
1788543270 35° C 49% 1016.5 hPa 0 mm - 911 W/m² -
1788542965 33.89° C 53% 1016.4 hPa 0 mm - 971 W/m² -
1788542660 32.78° C 54% 1016.7 hPa 0 mm - 1034 W/m² -
1788542355 33.33° C 53% 1016.7 hPa 0 mm - 205 W/m² -
1788542050 33.33° C 53% 1016.8 hPa 0 mm - 912 W/m² -
1788541747 33.89° C 52% 1016.6 hPa 0 mm - 254 W/m² -
1788541441 33.89° C 52% 1016.6 hPa 0 mm - 941 W/m² -
1788541136 33.89° C 52% 1016.8 hPa 0 mm - 923 W/m² -
1788540836 33.89° C 53% 1016.8 hPa 0 mm - 886 W/m² -
1788540535 33.33° C 54% 1016.9 hPa 0 mm - 900 W/m² -
1788540235 33.89° C 53% 1017 hPa 0 mm - 881 W/m² -
1788539932 33.33° C 53% 1016.7 hPa 0 mm - 875 W/m² -
1788539631 33.89° C 52% 1016.9 hPa 0 mm - 877 W/m² -
1788539331 34.44° C 52% 1017 hPa 0 mm - 861 W/m² -
1788539026 33.89° C 55% 1017.1 hPa 0 mm - 841 W/m² -
1788538722 32.78° C 58% 1017.2 hPa 0 mm - 836 W/m² -
1788538422 32.78° C 57% 1017.1 hPa 0 mm - 841 W/m² -
1788538117 32.22° C 57% 1016.9 hPa 0 mm - 828 W/m² -
1788537812 32.78° C 59% 1017.2 hPa 0 mm - 802 W/m² -
1788537508 32.22° C 59% 1017.4 hPa 0 mm - 820 W/m² -
1788537202 32.22° C 59% 1017.1 hPa 0 mm - 785 W/m² -

* Rain latest hour (hover to see other rain measurements)
** Current wind speed in m/s (hover to see current wind gust speed)